This demonstration page uses our WeatherBlox Daily Observations layout. Learn more.

Left ArrowRight Arrow

39.92423, -83.80882

Hourly Observations for March 3, 2022

Temp ( °F °C ) Dew Point ( °F °C ) Humidity (%) Winds ( mph kmh ) Pressure ( in mb ) Visibility ( mi km ) Precip ( " mm )
12:56 am 00:56 Cloudy 45 7.2 40 4.4 83 83 N 23 37 30.01 1016 10 16 0.00 0.00
1:56 am 01:56 Cloudy 42 5.6 39 3.9 89 89 N 15 24 30.05 1018 10 16 0.00 0.00
2:54 am 02:54 Cloudy 39 4 39 4 100 100 N 12 19 30.10 1019 10 16 0.00 0.00
2:56 am 02:56 Cloudy 40 4.4 39 3.9 97 97 N 13 20 30.08 1019 10 16 0.00 0.00
3:31 am 03:31 Cloudy 37 3 37 3 100 100 NE 14 22 30.12 1020 10 16 0.00 0.00
3:56 am 03:56 Cloudy 36 2.2 34 1.1 93 93 NNE 16 26 30.10 1019 10 16 0.00 0.00
4:06 am 04:06 Cloudy 36 2 34 1 93 93 NNE 14 22 30.14 1020 10 16 0.00 0.00
4:56 am 04:56 Cloudy 36 2.2 34 1.1 93 93 NNE 12 19 30.12 1020 10 16 0.00 0.00
5:56 am 05:56 Cloudy 35 1.7 33 0.6 93 93 NNE 12 19 30.16 1021 10 16 0.00 0.00
6:21 am 06:21 Cloudy 34 1 34 1 100 100 NNE 12 19 30.20 1023 8 13 0.00 0.00
6:43 am 06:43 Cloudy 32 0 32 0 100 100 NE 12 19 30.21 1023 9 14 0.00 0.00
6:56 am 06:56 Cloudy 32 0 32 0 100 100 NE 15 24 30.19 1022 10 16 0.00 0.00
7:24 am 07:24 Cloudy 32 0 30 -1 93 93 NE 13 20 30.24 1024 10 16 0.00 0.00
7:44 am 07:44 Cloudy 32 0 30 -1 93 93 NE 13 20 30.26 1025 10 16 0.00 0.00
7:56 am 07:56 Cloudy 32 0 29 -1.7 88 88 NNE 13 20 30.23 1024 10 16 0.00 0.00
8:56 am 08:56 Cloudy 32 0 25 -3.9 75 75 NE 10 17 30.29 1026 10 16 0.00 0.00
9:18 am 09:18 Partly Cloudy 32 0 23 -5 69 69 NNE 15 24 30.32 1027 10 16 0.00 0.00
9:56 am 09:56 Mostly Cloudy 32 0 25 -3.9 75 75 NNE 10 17 30.30 1026 10 16 0.00 0.00
10:20 am 10:20 Mostly Cloudy 34 1 25 -4 70 70 NE 13 20 30.34 1027 10 16 0.00 0.00
10:56 am 10:56 Mostly Cloudy 33 0.6 25 -3.9 72 72 NNE 14 22 30.33 1027 10 16 0.00 0.00
11:07 am 11:07 Partly Cloudy 34 1 25 -4 70 70 NNE 13 20 30.35 1028 10 16 0.00 0.00
11:56 am 11:56 Mostly Sunny 36 2.2 24 -4.4 62 62 N 10 17 30.34 1028 10 16 0.00 0.00
12:56 pm 12:56 Sunny 37 2.8 21 -6.1 52 52 VRB 7 11 30.34 1028 10 16 0.00 0.00
1:56 pm 13:56 Sunny 39 3.9 18 -7.8 43 43 N 9 15 30.34 1027 10 16 0.00 0.00
2:56 pm 14:56 Mostly Sunny 39 3.9 18 -7.8 43 43 N 8 13 30.34 1028 10 16 0.00 0.00
3:56 pm 15:56 Partly Cloudy 37 2.8 13 -10.6 37 37 N 12 19 30.36 1028 10 16 0.00 0.00
4:56 pm 16:56 Cloudy 36 2.2 18 -7.8 48 48 N 8 13 30.37 1029 10 16 0.00 0.00
5:56 pm 17:56 Cloudy 35 1.7 19 -7.2 52 52 N 12 19 30.39 1029 10 16 0.00 0.00
6:56 pm 18:56 Mostly Clear 32 0 20 -6.7 61 61 N 7 11 30.42 1030 10 16 0.00 0.00
7:56 pm 19:56 Clear 30 -1.1 23 -5 75 75 ENE 9 15 30.43 1031 10 16 0.00 0.00
8:56 pm 20:56 Clear 27 -2.8 21 -6.1 78 78 NE 10 17 30.44 1031 10 16 0.00 0.00
9:56 pm 21:56 Clear 25 -3.9 21 -6.1 85 85 ENE 6 9 30.46 1031 10 16 0.00 0.00
10:56 pm 22:56 Mostly Clear 28 -2.2 23 -5 81 81 ENE 12 19 30.46 1031 10 16 0.00 0.00
11:56 pm 23:56 Clear 24 -4.4 21 -6.1 88 88 E 7 11 30.45 1031 10 16 0.00 0.00

Powered by AerisWeather